Location: Burland Observatory
(39.4088°N, 105.4217°W)
Time: 04:20:07
(UTC-07:00)

A-11 Canister half - All Passes

Search period start: 07 December 2019 00:00
Search period end: 17 December 2019 00:00
Orbit: 1515 x 1685 km, 47.2° (Epoch: 06 December)

Date Brightness Start Highest point End Pass type
(mag) Time Alt. Az. Time Alt. Az. Time Alt. Az.
07 Dec - 10:04:57 10° SSE 10:10:41 18° ESE 10:16:31 10° E daylight
07 Dec - 12:04:44 10° SW 12:14:08 64° SE 12:23:55 10° ENE daylight
07 Dec - 14:09:38 10° W 14:19:20 65° NNW 14:29:23 10° ENE daylight
07 Dec - 16:15:56 10° WNW 16:25:43 57° N 16:35:43 10° E daylight
07 Dec - 18:21:27 10° WNW 18:31:36 89° SSW 18:41:49 10° ESE visible
07 Dec - 20:27:14 10° WNW 20:35:54 34° SW 20:44:32 10° S visible
08 Dec - 09:42:42 10° SSE 09:47:53 16° ESE 09:53:08 10° E daylight
08 Dec - 11:41:55 10° SW 11:51:15 61° SE 12:00:56 10° ENE daylight
08 Dec - 13:46:39 10° W 13:56:21 66° NNW 14:06:23 10° ENE daylight
08 Dec - 15:52:56 10° WNW 16:02:41 56° N 16:12:39 10° E daylight
08 Dec - 17:58:30 10° WNW 18:08:38 88° NNE 18:18:51 10° ESE visible
08 Dec - 20:04:10 10° WNW 20:13:02 36° SW 20:21:52 10° SSE visible
09 Dec - 09:20:34 10° SSE 09:25:05 14° ESE 09:29:39 10° E daylight
09 Dec - 11:19:08 10° SW 11:28:21 57° SE 11:37:56 10° ENE daylight
09 Dec - 13:23:42 10° WSW 13:33:21 68° NNW 13:43:23 10° ENE daylight
09 Dec - 15:29:57 10° WNW 15:39:40 56° N 15:49:36 10° E daylight
09 Dec - 17:35:33 10° WNW 17:45:40 85° NNE 17:55:54 10° ESE visible
09 Dec - 19:41:08 10° WNW 19:50:09 38° SW 19:59:10 10° SSE visible
10 Dec - 08:58:35 10° SE 09:02:17 13° ESE 09:06:00 10° E daylight
10 Dec - 10:56:22 10° SSW 11:05:28 54° SE 11:14:55 10° ENE daylight
10 Dec - 13:00:43 10° WSW 13:10:21 70° NNW 13:20:23 10° ENE daylight
10 Dec - 15:06:58 10° WNW 15:16:38 55° N 15:26:33 10° E daylight
10 Dec - 17:12:35 10° WNW 17:22:42 82° NNE 17:32:55 10° ESE visible
10 Dec - 19:18:06 10° WNW 19:27:16 41° SW 19:36:27 10° SSE visible
11 Dec - 08:36:57 10° SE 08:39:29 11° ESE 08:42:03 10° ESE daylight
11 Dec - 10:33:36 10° SSW 10:42:36 51° SE 10:51:56 10° ENE daylight
11 Dec - 12:37:46 10° WSW 12:47:23 72° NNW 12:57:24 10° ENE daylight
11 Dec - 14:43:58 10° WNW 14:53:36 55° N 15:03:30 10° E daylight
11 Dec - 16:49:39 10° WNW 16:59:42 80° NNE 17:09:56 10° ESE visible
11 Dec - 18:55:05 10° WNW 19:04:23 43° SW 19:13:42 10° SSE visible
12 Dec - 10:10:51 10° SSW 10:19:44 48° SE 10:28:55 10° ENE daylight
12 Dec - 12:14:48 10° WSW 12:24:24 74° NNW 12:34:25 10° ENE daylight
12 Dec - 14:20:59 10° WNW 14:30:34 55° N 14:40:27 10° ENE daylight
12 Dec - 16:26:42 10° WNW 16:36:44 77° NNE 16:46:56 10° ESE daylight
12 Dec - 18:32:04 10° WNW 18:41:29 46° SW 18:50:57 10° SSE visible
13 Dec - 09:48:08 10° SSW 09:56:51 45° SE 10:05:54 10° ENE daylight
13 Dec - 11:51:52 10° WSW 12:01:27 77° NNW 12:11:25 10° ENE daylight
13 Dec - 13:58:00 10° WNW 14:07:32 55° N 14:17:24 10° ENE daylight
13 Dec - 16:03:45 10° WNW 16:13:44 75° NNE 16:23:55 10° ESE daylight
13 Dec - 18:09:05 10° WNW 18:18:35 49° SW 18:28:10 10° SSE visible
13 Dec - 20:19:13 10° WSW 20:21:51 11° WSW 20:24:28 10° SW visible
14 Dec - 09:25:25 10° SSW 09:34:00 42° SE 09:42:53 10° ENE daylight
14 Dec - 11:28:55 10° WSW 11:38:29 79° NNW 11:48:27 10° ENE daylight
14 Dec - 13:35:01 10° W 13:44:31 55° N 13:54:22 10° ENE daylight
14 Dec - 15:40:49 10° WNW 15:50:45 72° NNE 16:00:55 10° ESE daylight
14 Dec - 17:46:06 10° WNW 17:55:41 52° SW 18:05:22 10° SSE visible
14 Dec - 19:55:13 10° W 19:59:01 13° WSW 20:02:50 10° SW visible
15 Dec - 09:02:44 10° SSW 09:11:09 39° SE 09:19:50 10° ENE daylight
15 Dec - 11:06:01 10° WSW 11:15:32 82° NNW 11:25:28 10° ENE daylight
15 Dec - 13:12:01 10° W 13:21:30 55° N 13:31:20 10° ENE daylight
15 Dec - 15:17:52 10° WNW 15:27:45 70° NNE 15:37:53 10° ESE daylight
15 Dec - 17:23:07 10° WNW 17:32:46 55° SW 17:42:33 10° SSE visible
15 Dec - 19:31:33 10° W 19:36:12 14° WSW 19:40:52 10° SSW visible
16 Dec - 08:40:04 10° SSW 08:48:18 36° SE 08:56:48 10° ENE daylight
16 Dec - 10:43:05 10° WSW 10:52:35 85° NNW 11:02:30 10° ENE daylight
16 Dec - 12:49:02 10° W 12:58:29 55° N 13:08:16 10° ENE daylight
16 Dec - 14:54:56 10° WNW 15:04:46 68° NNE 15:14:52 10° ESE daylight
16 Dec - 17:00:09 10° WNW 17:09:52 58° SW 17:19:43 10° SE visible
16 Dec - 19:08:03 10° W 19:13:22 16° WSW 19:18:43 10° SSW visible
